Location: Ajisawe
(8.4333°N, 4.3833°E)
Time: 00:02:44
(UTC+00:00)

S-56A Canister/Altair - Pass Details

Date: 27 April 2021
Orbit: 631 x 2501 km, 38.9° (Epoch: 15 May)

Event Time Altitude Azimuth Distance (km) Brightness Sun altitude
Exits shadow 02:38:27 10° 50° (NE) 1,997 10.3 -40.5°
Drops below altitude 10° 02:38:34 10° 52° (NE) 2,011 10.3 -40.4°
Sets 02:42:22 0° 86° (E) 2,919 11.3 -39.6°
